Total_Precipitation_Accumulation
0.01 0.04 0.18 0.40 0.79 1.20 1.12 0.57 0.39 0.25 0.27 0.38 0.38 0.28 0.29 0.37 0.45 0.72 0.36 0.27 0.13 0.04 0.03 0.05 0.08 0.06 0.07 0.09 0.10 0.12 0.11 0.10 0.09 0.08 0.07 0.06 0.06 0.06 0.06 0.06 0.07 0.09 0.10 0.10 0.10 0.09 0.07 0.07 0.07
0.02 0.08 0.25 0.53 1.04 1.49 0.97 0.42 0.29 0.23 0.32 0.40 0.33 0.26 0.28 0.27 0.24 0.18 0.17 0.29 0.13 0.05 0.02 0.02 0.07 0.07 0.06 0.08 0.09 0.11 0.12 0.12 0.12 0.10 0.08 0.08 0.08 0.08 0.09 0.08 0.08 0.09 0.10 0.10 0.09 0.08 0.06 0.06 0.07
0.03 0.09 0.30 0.52 0.83 1.01 0.50 0.23 0.19 0.21 0.36 0.40 0.31 0.28 0.30 0.34 0.31 0.21 0.15 0.17 0.12 0.05 0.03 0.04 0.05 0.06 0.06 0.07 0.09 0.11 0.11 0.12 0.13 0.11 0.08 0.09 0.10 0.11 0.11 0.11 0.09 0.09 0.10 0.10 0.09 0.08 0.08 0.07 0.08
0.05 0.15 0.32 0.43 0.58 0.53 0.28 0.17 0.15 0.21 0.35 0.31 0.28 0.36 0.40 0.44 0.28 0.21 0.18 0.13 0.10 0.07 0.05 0.05 0.06 0.06 0.06 0.07 0.09 0.10 0.12 0.13 0.14 0.11 0.11 0.11 0.12 0.12 0.12 0.11 0.10 0.09 0.09 0.09 0.09 0.08 0.09 0.09 0.10
0.06 0.20 0.37 0.44 0.40 0.29 0.21 0.17 0.18 0.18 0.20 0.29 0.34 0.51 0.50 0.46 0.30 0.36 0.36 0.22 0.10 0.09 0.10 0.10 0.10 0.08 0.09 0.09 0.09 0.11 0.11 0.12 0.13 0.12 0.13 0.12 0.13 0.12 0.12 0.12 0.11 0.10 0.08 0.10 0.12 0.11 0.09 0.10 0.11
0.06 0.18 0.26 0.25 0.18 0.15 0.19 0.17 0.16 0.17 0.21 0.33 0.43 0.46 0.52 0.46 0.41 0.58 0.53 0.38 0.20 0.15 0.17 0.18 0.17 0.16 0.13 0.12 0.11 0.12 0.14 0.14 0.15 0.15 0.15 0.14 0.14 0.14 0.13 0.14 0.13 0.12 0.12 0.12 0.13 0.14 0.12 0.12 0.13
0.03 0.08 0.10 0.09 0.09 0.12 0.14 0.13 0.14 0.16 0.29 0.39 0.47 0.56 0.69 0.73 0.59 0.58 0.64 0.61 0.37 0.36 0.46 0.38 0.24 0.21 0.21 0.19 0.18 0.17 0.17 0.19 0.19 0.19 0.17 0.16 0.17 0.17 0.18 0.19 0.19 0.18 0.19 0.20 0.17 0.14 0.16 0.17 0.16
0.01 0.02 0.04 0.03 0.03 0.07 0.07 0.09 0.12 0.16 0.25 0.41 0.53 0.67 0.96 0.90 0.75 0.73 0.78 0.88 0.61 0.51 0.54 0.49 0.33 0.28 0.22 0.19 0.20 0.22 0.23 0.23 0.23 0.21 0.21 0.19 0.19 0.20 0.24 0.25 0.31 0.32 0.35 0.37 0.32 0.24 0.23 0.25 0.25
0.00 0.02 0.03 0.02 0.02 0.03 0.03 0.05 0.09 0.16 0.24 0.32 0.55 0.75 0.77 0.71 0.88 0.92 1.06 1.23 1.14 0.90 0.78 0.66 0.41 0.32 0.30 0.26 0.24 0.29 0.30 0.29 0.29 0.31 0.28 0.31 0.37 0.47 0.61 0.56 0.66 0.62 0.64 0.63 0.61 0.53 0.51 0.54 0.44
0.00 0.01 0.01 0.01 0.01 0.01 0.02 0.04 0.10 0.24 0.39 0.61 0.92 0.92 0.72 0.73 1.04 1.22 1.38 1.57 1.54 1.36 1.19 0.94 0.65 0.51 0.47 0.39 0.39 0.43 0.44 0.55 0.54 0.68 0.72 0.82 0.98 0.97 0.81 0.94 1.15 1.21 1.20 1.13 1.11 1.19 1.08 0.92 0.76
0.00 0.00 0.01 0.01 0.00 0.01 0.01 0.03 0.07 0.18 0.58 1.02 1.29 1.28 1.10 0.99 1.24 1.59 1.87 2.12 1.85 1.53 1.37 1.22 0.98 0.78 0.61 0.63 0.63 0.70 0.81 1.07 0.95 0.91 1.02 1.31 1.24 1.04 0.95 1.07 1.35 1.62 1.63 1.53 1.68 1.80 1.44 1.51 1.60
0.00 0.00 0.00 0.00 0.01 0.01 0.01 0.03 0.12 0.22 0.60 0.83 1.05 1.21 1.27 1.29 1.37 1.58 1.88 2.10 2.23 2.06 1.82 1.56 1.42 1.22 1.13 1.04 0.95 0.89 0.94 1.05 1.04 1.16 1.09 1.40 1.49 1.37 1.31 1.41 1.52 1.72 1.93 2.22 2.20 2.32 2.21 2.15 2.00
0.00 0.00 0.00 0.00 0.01 0.01 0.01 0.06 0.16 0.27 0.53 0.56 0.66 0.84 1.14 1.38 1.70 1.96 2.09 2.40 2.49 2.54 2.28 2.08 1.90 1.85 1.80 1.58 1.38 1.13 1.19 1.16 1.19 1.37 1.39 1.52 1.76 1.82 1.88 1.83 1.75 1.68 2.03 2.43 2.58 2.37 2.62 2.67 2.29
0.00 0.00 0.00 0.01 0.01 0.02 0.03 0.08 0.18 0.32 0.47 0.53 0.60 0.81 1.09 1.42 1.69 2.11 2.39 2.73 2.70 2.70 2.74 2.80 2.65 2.52 2.47 2.28 2.07 1.81 1.64 1.70 1.68 1.72 1.85 2.00 2.14 2.30 2.35 2.20 2.06 1.87 1.91 2.19 2.39 2.41 2.62 2.51 2.40
0.00 0.01 0.04 0.04 0.04 0.05 0.11 0.19 0.36 0.49 0.54 0.69 0.80 1.04 1.21 1.52 1.83 1.95 2.12 2.34 2.62 2.84 3.21 3.43 3.46 3.37 3.29 3.14 2.83 2.45 2.24 2.28 2.42 2.47 2.51 2.48 2.53 2.73 2.62 2.36 2.06 1.96 2.02 2.12 2.10 2.14 2.25 2.10 2.03
0.01 0.03 0.10 0.11 0.07 0.08 0.14 0.39 0.53 0.58 0.70 0.87 0.93 1.17 1.47 1.54 1.82 1.95 1.98 2.17 2.69 3.11 3.62 3.88 4.02 4.19 4.08 3.95 3.60 3.11 2.80 2.69 2.71 2.78 2.77 2.71 2.71 2.61 2.53 2.21 1.87 1.93 2.01 2.00 1.97 1.87 1.94 1.92 1.97
0.02 0.06 0.12 0.19 0.11 0.12 0.19 0.48 0.60 0.62 0.83 0.96 1.13 1.16 1.33 1.54 1.91 2.16 2.28 2.39 2.78 3.34 3.98 4.41 4.85 5.08 4.95 4.52 3.92 3.44 3.31 3.16 3.00 2.96 2.83 2.69 2.50 2.34 2.42 2.11 1.93 1.89 1.85 1.75 1.67 1.85 2.00 1.93 1.93
0.03 0.05 0.12 0.22 0.15 0.14 0.26 0.47 0.68 0.76 0.91 1.09 1.14 1.12 1.25 1.51 1.71 2.00 2.27 2.63 2.95 3.40 4.05 4.67 5.23 5.41 5.09 4.41 3.88 3.70 3.52 3.18 2.90 2.61 2.35 2.15 2.08 1.96 2.02 1.82 1.71 1.78 1.78 1.64 1.70 1.85 1.91 1.69 1.75
0.03 0.05 0.14 0.22 0.14 0.16 0.29 0.46 0.68 0.84 0.98 1.04 1.22 1.20 1.35 1.57 1.73 2.08 2.41 2.81 3.19 3.61 4.22 4.77 5.15 5.07 4.79 4.33 3.86 3.51 3.01 2.66 2.36 2.03 1.74 1.57 1.49 1.46 1.62 1.46 1.53 1.57 1.52 1.42 1.40 1.47 1.49 1.30 1.55
0.05 0.08 0.17 0.21 0.14 0.15 0.30 0.50 0.77 0.85 0.84 0.85 1.06 1.17 1.20 1.34 1.62 1.89 2.37 2.71 3.05 3.47 3.90 4.23 4.15 3.72 3.47 3.29 3.02 2.67 2.53 2.35 2.23 2.09 1.83 1.49 1.41 1.35 1.24 1.27 1.23 1.27 1.31 1.19 1.13 1.25 1.23 1.04 1.29
0.06 0.08 0.14 0.19 0.22 0.23 0.33 0.65 0.88 0.90 0.82 0.76 0.79 0.89 0.95 1.06 1.25 1.55 2.06 2.36 2.51 2.82 3.08 3.12 2.89 2.54 2.40 2.33 2.14 2.13 2.25 2.29 2.20 2.13 1.97 1.70 1.54 1.46 1.38 1.28 1.15 1.09 1.08 1.09 1.04 1.11 1.11 0.99 1.02
0.09 0.06 0.07 0.10 0.19 0.41 0.47 0.82 1.06 1.11 1.07 0.89 0.78 0.85 0.88 0.87 0.91 1.22 1.58 1.74 1.90 1.98 2.02 2.05 2.01 1.87 1.78 1.74 1.65 1.52 1.59 1.81 1.94 2.05 2.04 2.02 1.86 1.66 1.49 1.34 1.14 0.96 0.91 0.96 0.84 0.90 1.02 1.04 0.93
0.06 0.05 0.06 0.09 0.15 0.30 0.41 0.65 1.03 1.25 1.39 1.01 0.78 0.74 0.68 0.73 0.88 1.07 1.13 1.18 1.29 1.30 1.37 1.39 1.49 1.57 1.55 1.51 1.63 1.53 1.32 1.27 1.23 1.27 1.39 1.48 1.54 1.47 1.25 1.12 1.02 0.88 0.80 0.78 0.80 0.90 0.96 0.99 0.92
0.06 0.10 0.16 0.24 0.37 0.60 0.57 0.61 0.92 1.06 1.12 0.81 0.67 0.71 0.58 0.55 0.67 0.80 0.88 0.89 0.93 0.94 1.00 1.14 1.28 1.47 1.51 1.48 1.43 1.44 1.35 1.27 1.18 1.10 1.08 1.04 1.08 1.08 1.00 0.91 0.87 0.82 0.79 0.77 0.74 0.79 0.87 0.95 1.00
0.08 0.15 0.47 0.81 1.13 1.16 0.67 0.66 0.83 0.76 0.74 0.76 0.64 0.60 0.57 0.47 0.45 0.43 0.47 0.50 0.53 0.54 0.61 0.83 0.97 1.12 1.18 1.19 1.18 1.14 1.24 1.24 1.15 1.00 0.89 0.80 0.74 0.75 0.77 0.78 0.80 0.76 0.79 0.82 0.87 0.86 0.86 0.92 1.03
0.08 0.12 0.34 0.57 0.74 0.86 0.70 0.99 1.03 0.77 0.67 0.56 0.46 0.41 0.40 0.31 0.27 0.23 0.23 0.25 0.31 0.35 0.39 0.49 0.69 0.83 0.97 1.00 1.04 1.13 1.28 1.29 1.18 1.15 0.97 0.85 0.75 0.71 0.70 0.78 0.82 0.78 0.76 0.75 0.85 0.88 0.93 1.00 1.03
0.09 0.08 0.12 0.19 0.31 0.56 0.81 0.99 0.90 0.72 0.67 0.49 0.34 0.27 0.25 0.20 0.17 0.15 0.15 0.17 0.19 0.22 0.28 0.31 0.43 0.61 0.77 0.87 0.95 0.94 0.92 0.95 0.94 0.94 0.90 0.82 0.82 0.73 0.78 0.83 0.88 0.87 0.86 0.87 0.91 0.90 0.98 1.16 1.23
0.10 0.09 0.10 0.14 0.27 0.43 0.70 1.02 1.03 0.86 0.72 0.54 0.40 0.25 0.18 0.18 0.15 0.15 0.13 0.14 0.14 0.17 0.26 0.34 0.37 0.50 0.76 0.94 0.97 0.84 0.72 0.64 0.71 0.75 0.79 0.83 0.83 0.80 0.81 0.83 0.85 0.89 0.88 0.88 0.93 0.96 1.05 1.21 1.27
0.14 0.11 0.11 0.13 0.15 0.28 0.59 0.76 0.61 0.58 0.50 0.45 0.40 0.27 0.21 0.19 0.14 0.12 0.10 0.09 0.11 0.15 0.23 0.39 0.48 0.60 0.82 1.04 1.12 1.00 0.82 0.73 0.71 0.66 0.63 0.70 0.77 0.82 0.85 0.80 0.72 0.66 0.69 0.81 0.96 1.00 1.07 1.15 1.20
0.14 0.14 0.14 0.20 0.18 0.19 0.32 0.49 0.34 0.33 0.39 0.34 0.28 0.21 0.16 0.12 0.12 0.09 0.07 0.06 0.08 0.11 0.22 0.51 0.78 1.09 1.22 1.38 1.53 1.39 1.02 0.82 0.72 0.58 0.54 0.61 0.72 0.81 0.84 0.77 0.69 0.65 0.69 0.82 0.96 1.08 1.28 1.41 1.36